Regional Weather Roundup
Issued by NWS

Home | Current Version | Previous Version | Text Only | Print | Product List | Glossary Off
Versions: 1 2 3 4 5 6 7 8 9 10 11 12 13 14 15 16 17 18 19 20 21 22 23 24 25 26 27 28 29 30 31 32 33 34 35 36 37 38 39 40 41 42 43 44 45 46 47 48 49 50

000
ASUS45 KCYS 250110
RWRWY

WYOMING REGIONAL WEATHER ROUNDUP
NATIONAL WEATHER SERVICE CHEYENNE WY
700 PM MDT SAT SEP 24 2016

NOTE:  "FAIR" INDICATES FEW OR NO CLOUDS BELOW 12,000 FEET
WITH NO SIGNIFICANT WEATHER AND/OR OBSTRUCTIONS TO VISIBILITY.

WYZ001-250200-
YELLOWSTONE NATIONAL PARK

CITY           SKY/WX    TMP DP  RH WIND       PRES   REMARKS
LK YELLOWSTONE   N/A     41  33  73 CALM      30.35R
W YELLOWSTONE  NOT AVBL

$$
WYZ002>013-054>058-071-098>099-250200-
NORTHERN WYOMING

CITY           SKY/WX    TMP DP  RH WIND       PRES   REMARKS
JACKSON        PTCLDY    48  36  61 SW5       30.30R
CODY           CLOUDY    52  41  66 CALM      30.24R
GREYBULL       CLOUDY    50  46  86 E12       30.19R
WORLAND        CLOUDY    49  46  90 SW6       30.20R
SHERIDAN       CLOUDY    49  46  90 CALM      30.14R
BUFFALO        CLOUDY    47  43  86 CALM      30.16R
GILLETTE       LGT RAIN  44  43  96 NW23G32   30.11R
HULETT         RAIN      45  41  87 W16G31    30.04R
NEWCASTLE      DRIZZLE   45  39  81 NW29      30.07R

$$
WYZ014>020-022>026-101>103-250200-
CENTRAL WYOMING

CITY           SKY/WX    TMP DP  RH WIND       PRES   REMARKS
BIG PINEY      FAIR      46  31  55 N21G29    30.32R
PINEDALE       FAIR      45  32  61 NW12      30.32R
DUBOIS         CLOUDY    45  32  61 NW14      30.28R
LANDER         FAIR      45  39  79 SE10      30.26R
RIVERTON       CLOUDY    47  41  80 SE3       30.28R
CASPER         MOCLDY    45  40  82 W15       30.21R
DOUGLAS        FAIR      49  39  68 NW20      30.16R

$$
WYZ021-027>030-104>119-250200-
SOUTHERN WYOMING

CITY           SKY/WX    TMP DP  RH WIND       PRES   REMARKS
EVANSTON       CLOUDY    47  33  58 W12       30.37R
FORT BRIDGER   MOCLDY    48  36  62 W14       30.38R
ROCK SPRINGS   CLOUDY    46  36  68 W12       30.30R
DIXON          LGT RAIN  44  41  88 W6        30.33R
RAWLINS        CLOUDY    42  36  79 W6        30.30R
SARATOGA       CLOUDY    41  39  93 NW7       30.31R
LARAMIE        CLOUDY    42  34  73 NW21G29   30.24R
CHEYENNE       MOCLDY    50  35  56 NW21G30   30.20R
TORRINGTON     MOCLDY    53  39  59 NW10      30.12R
PINE BLUFFS    FAIR      54  36  50 NW22G30   30.15R

$$



USA.gov is the U.S. government's official web portal to all federal, state and local government web resources and services.